TimeEST,TemperatureF,Dew PointF,Humidity,Sea Level PressureIn,VisibilityMPH,Wind Direction,Wind SpeedMPH,Gust SpeedMPH,PrecipitationIn,Events,Conditions,WindDirDegrees,DateUTC
12:52 AM,28.9,7.0,40,30.03,10.0,WNW,13.8,21.9,N/A,,Clear,300,2013-01-21 05:52:00
1:52 AM,28.0,7.0,41,30.04,10.0,WNW,8.1,-,N/A,,Clear,290,2013-01-21 06:52:00
2:52 AM,28.0,5.0,38,30.06,10.0,NW,16.1,23.0,N/A,,Clear,310,2013-01-21 07:52:00
3:52 AM,27.0,5.0,39,30.07,10.0,WNW,10.4,-,N/A,,Clear,300,2013-01-21 08:52:00
4:52 AM,27.0,5.0,39,30.08,10.0,West,3.5,-,N/A,,Clear,280,2013-01-21 09:52:00
5:52 AM,24.1,8.1,51,30.08,10.0,Calm,Calm,-,N/A,,Clear,0,2013-01-21 10:52:00
6:52 AM,25.0,7.0,46,30.10,10.0,West,3.5,-,N/A,,Clear,280,2013-01-21 11:52:00
7:52 AM,26.1,6.1,43,30.10,10.0,Calm,Calm,-,N/A,,Partly Cloudy,0,2013-01-21 12:52:00
8:52 AM,28.0,6.1,39,30.10,10.0,NNW,3.5,-,N/A,,Overcast,330,2013-01-21 13:52:00
9:52 AM,28.0,6.1,39,30.11,10.0,Calm,Calm,-,N/A,,Overcast,0,2013-01-21 14:52:00
10:52 AM,28.0,7.0,41,30.09,10.0,Calm,Calm,-,N/A,,Overcast,0,2013-01-21 15:52:00
11:52 AM,28.9,10.0,45,30.03,10.0,Variable,3.5,-,N/A,,Overcast,0,2013-01-21 16:52:00
12:52 PM,28.9,10.9,47,30.00,10.0,SE,4.6,-,N/A,,Overcast,130,2013-01-21 17:52:00
1:52 PM,30.0,14.0,51,29.97,10.0,ESE,6.9,-,N/A,,Overcast,120,2013-01-21 18:52:00
2:52 PM,30.9,17.1,57,29.95,8.0,South,5.8,-,0.00,Snow,Light Snow,190,2013-01-21 19:52:00
3:52 PM,32.0,19.9,61,29.92,10.0,SSW,3.5,-,0.00,,Overcast,210,2013-01-21 20:52:00
4:52 PM,30.9,21.0,67,29.91,10.0,WSW,5.8,-,N/A,,Overcast,250,2013-01-21 21:52:00
5:52 PM,30.9,19.9,64,29.90,10.0,Calm,Calm,-,0.00,,Overcast,0,2013-01-21 22:52:00
6:52 PM,30.0,19.9,66,29.90,10.0,WNW,3.5,-,N/A,,Overcast,300,2013-01-21 23:52:00
7:52 PM,30.0,19.9,66,29.88,10.0,North,6.9,-,N/A,,Overcast,360,2013-01-22 00:52:00
8:52 PM,28.9,21.0,72,29.87,6.0,NNW,8.1,-,0.00,Snow,Light Snow,340,2013-01-22 01:52:00
9:06 PM,28.4,21.2,74,29.87,4.0,WNW,4.6,-,0.00,Snow,Light Snow,300,2013-01-22 02:06:00
9:16 PM,28.4,21.2,74,29.86,5.0,NNW,3.5,-,0.00,Snow,Light Snow,330,2013-01-22 02:16:00
9:52 PM,28.0,21.9,78,29.86,10.0,Calm,Calm,-,0.00,,Overcast,0,2013-01-22 02:52:00
10:52 PM,28.0,21.9,78,29.84,10.0,NW,6.9,-,0.00,,Overcast,310,2013-01-22 03:52:00
11:52 PM,27.0,19.9,75,29.82,10.0,West,4.6,-,N/A,,Mostly Cloudy,280,2013-01-22 04:52:00